| time (UTC) | temp F | wind direction | speed knots | gust knots | rain 1hr in | rain 24hr in | rain mn in | humidity % | barometer mb |
| 20260505194552 | 80 | 201 | 11.3 | 22.6 | 0.00 | 0.00 | 0.00 | 79 | 1008.2 |
| 20260505193049 | 79 | 186 | 12.2 | 22.6 | 0.00 | 0.00 | 0.00 | 80 | 1008.5 |
| 20260505191608 | 78 | 183 | 13.9 | 25.2 | 0.00 | 0.00 | 0.00 | 80 | 1008.3 |
| 20260505190052 | 79 | 208 | 13.9 | 23.5 | 0.00 | 0.00 | 0.00 | 79 | 1008.3 |
| 20260505184550 | 78 | 219 | 13.0 | 20.0 | 0.00 | 0.00 | 0.00 | 81 | 1008.5 |
| 20260505183050 | 77 | 187 | 12.2 | 21.7 | 0.00 | 0.00 | 0.00 | 84 | 1008.8 |
| 20260505181551 | 76 | 190 | 10.4 | 24.3 | 0.00 | 0.00 | 0.00 | 85 | 1009.0 |
| 20260505174559 | 75 | 177 | 10.4 | 19.1 | 0.00 | 0.00 | 0.00 | 86 | 1009.2 |
| 20260505173047 | 74 | 177 | 13.9 | 20.0 | 0.00 | 0.00 | 0.00 | 86 | 1009.2 |
| 20260505171551 | 73 | 190 | 11.3 | 20.9 | 0.00 | 0.00 | 0.00 | 87 | 1009.4 |
| 20260505170049 | 73 | 221 | 10.4 | 18.2 | 0.00 | 0.00 | 0.00 | 88 | 1009.5 |
| 20260505164552 | 73 | 190 | 11.3 | 20.0 | 0.00 | 0.00 | 0.00 | 89 | 1009.6 |
| 20260505163046 | 72 | 178 | 8.7 | 18.2 | 0.00 | 0.00 | 0.00 | 89 | 1009.7 |
| 20260505161553 | 72 | 172 | 10.4 | 20.9 | 0.00 | 0.00 | 0.00 | 89 | 1009.7 |
| 20260505153050 | 71 | 191 | 8.7 | 16.5 | 0.00 | 0.00 | 0.00 | 90 | 1009.6 |
| 20260505151551 | 71 | 180 | 8.7 | 16.5 | 0.00 | 0.00 | 0.00 | 90 | 1009.7 |
| 20260505124550 | 69 | 185 | 11.3 | 17.4 | 0.00 | 0.00 | 0.00 | 88 | 1008.5 |
| 20260505123051 | 69 | 192 | 9.6 | 17.4 | 0.00 | 0.00 | 0.00 | 88 | 1008.4 |
| 20260505121554 | 69 | 184 | 9.6 | 19.1 | 0.00 | 0.00 | 0.00 | 88 | 1008.2 |
| 20260505120053 | 69 | 195 | 11.3 | 18.2 | 0.00 | 0.00 | 0.00 | 88 | 1008.2 |
| 20260505114555 | 69 | 166 | 10.4 | 19.1 | 0.00 | 0.00 | 0.00 | 89 | 1008.3 |
| 20260505113049 | 69 | 182 | 9.6 | 18.2 | 0.00 | 0.00 | 0.00 | 89 | 1008.2 |
| 20260505111547 | 69 | 194 | 9.6 | 19.1 | 0.00 | 0.00 | 0.00 | 89 | 1008.1 |
| 20260505101606 | 69 | 196 | 9.6 | 16.5 | 0.00 | 0.00 | 0.00 | 89 | 1008.4 |
| 20260505094552 | 68 | 205 | 10.4 | 17.4 | 0.00 | 0.00 | 0.00 | 89 | 1008.2 |
| 20260505093101 | 68 | 186 | 10.4 | 19.1 | 0.00 | 0.00 | 0.00 | 89 | 1008.1 |
| 20260505091546 | 68 | 173 | 10.4 | 18.2 | 0.00 | 0.00 | 0.00 | 89 | 1008.1 |
| 20260505090048 | 68 | 184 | 9.6 | 18.2 | 0.00 | 0.00 | 0.00 | 88 | 1008.2 |
| 20260505084551 | 68 | 192 | 9.6 | 20.0 | 0.00 | 0.00 | 0.00 | 88 | 1008.4 |
| 20260505083052 | 68 | 173 | 12.2 | 19.1 | 0.00 | 0.00 | 0.00 | 88 | 1008.8 |
| 20260505081600 | 68 | 189 | 11.3 | 20.9 | 0.00 | 0.00 | 0.00 | 87 | 1009.1 |
| 20260505080059 | 69 | 180 | 11.3 | 20.0 | 0.00 | 0.00 | 0.00 | 87 | 1009.2 |
| 20260505074551 | 69 | 178 | 14.8 | 22.6 | 0.00 | 0.00 | 0.00 | 87 | 1009.3 |
| 20260505073049 | 69 | 193 | 10.4 | 21.7 | 0.00 | 0.00 | 0.00 | 87 | 1009.6 |
| 20260505071554 | 69 | 179 | 13.0 | 20.9 | 0.00 | 0.00 | 0.00 | 86 | 1009.8 |
| 20260505070059 | 69 | 180 | 11.3 | 23.5 | 0.00 | 0.00 | 0.00 | 86 | 1009.8 |
| 20260505064551 | 69 | 360 | 12.2 | 20.9 | 0.00 | 0.00 | 0.00 | 86 | 1010.0 |
| 20260505063051 | 69 | 185 | 11.3 | 20.0 | 0.00 | 0.00 | 0.00 | 86 | 1010.2 |
| 20260505061601 | 69 | 186 | 11.3 | 20.0 | 0.00 | 0.00 | 0.00 | 86 | 1010.2 |
| 20260505060046 | 70 | 185 | 10.4 | 20.0 | 0.00 | 0.00 | 0.00 | 85 | 1010.1 |
| 20260505054550 | 70 | 171 | 9.6 | 18.2 | 0.00 | 0.00 | 0.00 | 85 | 1010.2 |
| 20260505053052 | 70 | 147 | 9.6 | 19.1 | 0.00 | 0.00 | 0.00 | 85 | 1010.3 |
| 20260505051544 | 70 | 203 | 8.7 | 20.0 | 0.00 | 0.00 | 0.00 | 85 | 1010.2 |
| 20260505041548 | 71 | 160 | 9.6 | 18.2 | 0.00 | 0.00 | 0.00 | 83 | 1009.8 |
| 20260505040050 | 71 | 181 | 9.6 | 18.2 | 0.00 | 0.00 | 0.00 | 82 | 1010.0 |
| 20260505034551 | 71 | 172 | 8.7 | 16.5 | 0.00 | 0.00 | 0.00 | 82 | 1010.1 |
| 20260505033046 | 71 | 164 | 9.6 | 18.2 | 0.00 | 0.00 | 0.00 | 82 | 1010.0 |
| 20260505031552 | 71 | 152 | 10.4 | 16.5 | 0.00 | 0.00 | 0.00 | 81 | 1010.1 |
| 20260505030049 | 72 | 177 | 8.7 | 16.5 | 0.00 | 0.00 | 0.00 | 80 | 1010.2 |
| 20260505024554 | 72 | 133 | 10.4 | 17.4 | 0.00 | 0.00 | 0.00 | 79 | 1009.8 |
| 20260505023056 | 72 | 164 | 8.7 | 13.9 | 0.00 | 0.00 | 0.00 | 79 | 1009.7 |
| 20260505021554 | 72 | 164 | 9.6 | 14.8 | 0.00 | 0.00 | 0.00 | 78 | 1009.9 |
| 20260505020054 | 72 | 167 | 7.8 | 13.0 | 0.00 | 0.00 | 0.00 | 79 | 1009.5 |
| 20260505014555 | 71 | 161 | 7.0 | 9.6 | 0.00 | 0.00 | 0.00 | 80 | 1009.6 |
| 20260505013043 | 72 | 157 | 6.1 | 9.6 | 0.00 | 0.00 | 0.00 | 78 | 1009.7 |
| 20260505011554 | 72 | 159 | 7.0 | 13.0 | 0.00 | 0.00 | 0.00 | 77 | 1009.6 |
| 20260505010112 | 73 | 155 | 7.8 | 10.4 | 0.00 | 0.00 | 0.00 | 76 | 1009.8 |
| 20260505004551 | 74 | 163 | 7.8 | 13.0 | 0.00 | 0.00 | 0.00 | 75 | 1009.7 |
| 20260505003055 | 75 | 163 | 7.8 | 13.9 | 0.00 | 0.00 | 0.00 | 74 | 1009.6 |
| 20260505001552 | 76 | 163 | 9.6 | 20.9 | 0.00 | 0.00 | 0.00 | 71 | 1009.7 |
| 20260505000049 | 76 | 159 | 11.3 | 20.0 | 0.00 | 0.00 | 0.00 | 70 | 1009.8 |
| 20260504234551 | 76 | 157 | 11.3 | 23.5 | 0.00 | 0.00 | 0.00 | 69 | 1010.1 |
| 20260504233055 | 77 | 157 | 11.3 | 20.9 | 0.00 | 0.00 | 0.00 | 68 | 1010.4 |
| 20260504231548 | 77 | 163 | 12.2 | 20.0 | 0.00 | 0.00 | 0.00 | 68 | 1010.5 |
| 20260504230047 | 77 | 167 | 10.4 | 18.2 | 0.00 | 0.00 | 0.00 | 67 | 1010.8 |
| 20260504224549 | 77 | 175 | 11.3 | 18.2 | 0.00 | 0.00 | 0.00 | 67 | 1010.8 |
| 20260504223100 | 77 | 164 | 11.3 | 23.5 | 0.00 | 0.00 | 0.00 | 68 | 1010.8 |
| 20260504221603 | 77 | 167 | 9.6 | 18.2 | 0.00 | 0.00 | 0.00 | 68 | 1010.9 |
| 20260504220052 | 77 | 169 | 13.0 | 20.9 | 0.00 | 0.00 | 0.00 | 67 | 1010.8 |
| 20260504214602 | 78 | 183 | 9.6 | 19.1 | 0.00 | 0.00 | 0.00 | 66 | 1011.1 |
| 20260504213108 | 79 | 182 | 9.6 | 20.0 | 0.00 | 0.00 | 0.00 | 64 | 1011.3 |
| 20260504211552 | 78 | 144 | 13.9 | 20.9 | 0.00 | 0.00 | 0.00 | 64 | 1011.7 |
| 20260504210053 | 79 | 195 | 11.3 | 18.2 | 0.00 | 0.00 | 0.00 | 64 | 1011.9 |
| 20260504204553 | 78 | 161 | 12.2 | 21.7 | 0.00 | 0.00 | 0.00 | 64 | 1012.2 |
| 20260504203050 | 77 | 161 | 13.9 | 20.0 | 0.00 | 0.00 | 0.00 | 65 | 1012.6 |
| 20260504201549 | 79 | 161 | 11.3 | 18.2 | 0.00 | 0.00 | 0.00 | 63 | 1012.9 |
| 20260504200100 | 78 | 150 | 11.3 | 20.9 | 0.00 | 0.00 | 0.00 | 63 | 1012.9 |